| time (UTC) | temp F | wind direction | speed MPH | gust MPH | rain 1hr in | rain 24hr in | rain mn in | humidity % | barometer mb |
| 20260505111620 | 60 | 198 | 2.0 | 2.0 | 0.07 | 0.08 | 0.08 | 91 | 1003.9 |
| 20260505111116 | 60 | 166 | 1.0 | 2.0 | 0.00 | 0.07 | 0.07 | 92 | 1004.9 |
| 20260505110612 | 60 | 93 | 0.0 | 3.0 | 0.00 | 0.07 | 0.07 | 93 | 1005.5 |
| 20260505110110 | 60 | 93 | 0.0 | 1.0 | 0.00 | 0.07 | 0.07 | 94 | 1005.5 |
| 20260505102045 | 60 | 189 | 0.0 | 0.0 | 0.00 | 0.07 | 0.07 | 93 | 1005.0 |
| 20260505101544 | 60 | 153 | 0.0 | 0.0 | 0.00 | 0.07 | 0.07 | 92 | 1004.9 |
| 20260505101039 | 60 | 129 | 1.0 | 1.0 | 0.00 | 0.07 | 0.07 | 93 | 1004.4 |
| 20260505100536 | 59 | 56 | 2.0 | 2.0 | 0.00 | 0.07 | 0.07 | 95 | 1004.9 |
| 20260505100033 | 59 | 151 | 0.0 | 0.0 | 0.00 | 0.07 | 0.07 | 94 | 1004.2 |
| 20260505095529 | 59 | 143 | 0.0 | 0.0 | 0.05 | 0.07 | 0.07 | 94 | 1004.0 |
| 20260505095026 | 60 | 185 | 0.0 | 0.0 | 0.05 | 0.07 | 0.07 | 93 | 1003.9 |
| 20260505094522 | 60 | 186 | 0.0 | 0.0 | 0.00 | 0.06 | 0.06 | 93 | 1003.9 |
| 20260505094019 | 60 | 164 | 0.0 | 0.0 | 0.00 | 0.06 | 0.06 | 92 | 1004.0 |
| 20260505093515 | 60 | 164 | 0.0 | 0.0 | 0.00 | 0.06 | 0.06 | 90 | 1003.9 |
| 20260505093013 | 60 | 162 | 0.0 | 0.0 | 0.00 | 0.06 | 0.06 | 90 | 1004.0 |
| 20260505092510 | 60 | 179 | 0.0 | 0.0 | 0.00 | 0.06 | 0.06 | 89 | 1003.8 |
| 20260505092008 | 60 | 179 | 0.0 | 0.0 | 0.00 | 0.06 | 0.06 | 90 | 1003.7 |
| 20260505091505 | 60 | 183 | 0.0 | 1.0 | 0.00 | 0.06 | 0.06 | 91 | 1003.3 |
| 20260505091003 | 60 | 172 | 1.0 | 7.0 | 0.00 | 0.06 | 0.06 | 92 | 1002.2 |
| 20260505090501 | 60 | 167 | 1.0 | 7.0 | 0.00 | 0.06 | 0.06 | 94 | 1002.1 |
| 20260505085958 | 60 | 110 | 4.0 | 4.0 | 0.00 | 0.06 | 0.06 | 95 | 1002.3 |
| 20260505085456 | 60 | 162 | 4.0 | 7.0 | 0.07 | 0.06 | 0.06 | 95 | 1002.8 |
| 20260505084954 | 60 | 202 | 2.0 | 7.0 | 0.07 | 0.06 | 0.06 | 95 | 1003.5 |
| 20260505084452 | 61 | 171 | 0.0 | 0.0 | 0.05 | 0.05 | 0.05 | 95 | 1004.0 |
| 20260505083949 | 61 | 168 | 0.0 | 0.0 | 0.07 | 0.04 | 0.04 | 95 | 1004.7 |
| 20260505083446 | 61 | 175 | 0.0 | 0.0 | 0.12 | 0.04 | 0.04 | 95 | 1004.9 |
| 20260505082942 | 61 | 195 | 0.0 | 0.0 | 0.05 | 0.03 | 0.03 | 94 | 1005.1 |
| 20260505082438 | 61 | 165 | 0.0 | 0.0 | 0.00 | 0.02 | 0.02 | 94 | 1005.0 |
| 20260505081936 | 61 | 110 | 0.0 | 0.0 | 0.00 | 0.02 | 0.02 | 93 | 1004.7 |
| 20260505081433 | 62 | 114 | 0.0 | 0.0 | 0.00 | 0.02 | 0.02 | 92 | 1004.7 |
| 20260505080929 | 62 | 134 | 0.0 | 0.0 | 0.07 | 0.02 | 0.02 | 91 | 1004.7 |
| 20260505080425 | 62 | 85 | 0.0 | 0.0 | 0.05 | 0.01 | 0.01 | 90 | 1004.6 |
| 20260505075921 | 63 | 171 | 0.0 | 0.0 | 0.05 | 0.01 | 0.01 | 87 | 1004.7 |
| 20260505075418 | 63 | 186 | 0.0 | 0.0 | 0.00 | 0.00 | 0.00 | 85 | 1004.3 |
| 20260505074915 | 64 | 165 | 0.0 | 0.0 | 0.00 | 0.00 | 0.00 | 84 | 1004.4 |
| 20260505074412 | 64 | 183 | 0.0 | 2.0 | 0.00 | 0.00 | 0.00 | 81 | 1004.7 |
| 20260505073909 | 65 | 174 | 0.0 | 2.0 | 0.00 | 0.00 | 0.00 | 79 | 1004.7 |
| 20260505073407 | 65 | 192 | 0.0 | 2.0 | 0.00 | 0.00 | 0.00 | 77 | 1004.7 |
| 20260505072904 | 65 | 203 | 0.0 | 0.0 | 0.00 | 0.00 | 0.00 | 77 | 1004.5 |
| 20260505072400 | 64 | 188 | 0.0 | 0.0 | 0.00 | 0.00 | 0.00 | 77 | 1004.3 |
| 20260505071856 | 65 | 168 | 0.0 | 0.0 | 0.00 | 0.00 | 0.00 | 76 | 1004.4 |
| 20260505071352 | 65 | 173 | 0.0 | 0.0 | 0.00 | 0.00 | 0.00 | 76 | 1004.3 |
| 20260505070851 | 65 | 84 | 1.0 | 4.0 | 0.00 | 0.00 | 0.00 | 75 | 1004.4 |
| 20260505070347 | 64 | 136 | 0.0 | 0.0 | 0.00 | 0.00 | 0.00 | 76 | 1004.5 |
| 20260505065842 | 64 | 178 | 0.0 | 0.0 | 0.00 | 0.00 | 0.00 | 76 | 1004.4 |
| 20260505065340 | 64 | 171 | 0.0 | 0.0 | 0.00 | 0.00 | 0.00 | 76 | 1004.1 |
| 20260505064837 | 64 | 164 | 0.0 | 0.0 | 0.00 | 0.00 | 0.00 | 76 | 1004.4 |
| 20260505064333 | 64 | 171 | 0.0 | 2.0 | 0.00 | 0.00 | 0.00 | 76 | 1004.3 |
| 20260505063832 | 64 | 157 | 0.0 | 0.0 | 0.00 | 0.00 | 0.00 | 76 | 1004.8 |
| 20260505063327 | 64 | 148 | 0.0 | 1.0 | 0.00 | 0.00 | 0.00 | 75 | 1004.8 |
| 20260505062824 | 64 | 169 | 0.0 | 0.0 | 0.00 | 0.00 | 0.00 | 75 | 1005.1 |
| 20260505062322 | 64 | 172 | 0.0 | 2.0 | 0.00 | 0.00 | 0.00 | 75 | 1004.7 |
| 20260505061818 | 64 | 191 | 0.0 | 0.0 | 0.00 | 0.00 | 0.00 | 76 | 1004.9 |
| 20260505061317 | 64 | 177 | 0.0 | 0.0 | 0.00 | 0.00 | 0.00 | 76 | 1005.1 |
| 20260505060814 | 64 | 156 | 0.0 | 0.0 | 0.00 | 0.00 | 0.00 | 76 | 1005.1 |
| 20260505060310 | 64 | 169 | 0.0 | 0.0 | 0.00 | 0.00 | 0.00 | 76 | 1005.1 |
| 20260505055806 | 64 | 165 | 0.0 | 0.0 | 0.00 | 0.00 | 0.00 | 76 | 1004.9 |
| 20260505055303 | 64 | 172 | 0.0 | 0.0 | 0.00 | 0.00 | 0.00 | 76 | 1004.8 |
| 20260505054800 | 64 | 206 | 0.0 | 0.0 | 0.00 | 0.00 | 0.00 | 76 | 1005.0 |
| 20260505054257 | 64 | 186 | 0.0 | 0.0 | 0.00 | 0.00 | 0.00 | 76 | 1004.9 |
| 20260505053755 | 64 | 176 | 0.0 | 0.0 | 0.00 | 0.00 | 0.00 | 76 | 1004.8 |
| 20260505053252 | 64 | 176 | 0.0 | 0.0 | 0.00 | 0.00 | 0.00 | 75 | 1004.9 |
| 20260505052749 | 65 | 165 | 0.0 | 0.0 | 0.00 | 0.00 | 0.00 | 75 | 1004.8 |
| 20260505052246 | 64 | 163 | 0.0 | 2.0 | 0.00 | 0.00 | 0.00 | 75 | 1004.7 |
| 20260505051743 | 65 | 170 | 0.0 | 1.0 | 0.00 | 0.00 | 0.00 | 74 | 1004.8 |
| 20260505051241 | 64 | 184 | 0.0 | 4.0 | 0.00 | 0.00 | 0.00 | 75 | 1004.9 |
| 20260505050738 | 65 | 150 | 0.0 | 3.0 | 0.00 | 0.00 | 0.00 | 74 | 1004.9 |
| 20260505050237 | 64 | 150 | 0.0 | 0.0 | 0.00 | 0.00 | 0.00 | 75 | 1004.8 |
| 20260505041700 | 65 | 161 | 0.0 | 0.0 | 0.00 | 0.00 | 0.00 | 74 | 1005.6 |
| 20260505041158 | 65 | 170 | 0.0 | 0.0 | 0.00 | 0.00 | 0.00 | 73 | 1005.7 |
| 20260505040654 | 66 | 171 | 0.0 | 0.0 | 0.00 | 0.00 | 0.00 | 72 | 1005.8 |
| 20260505040151 | 66 | 170 | 0.0 | 0.0 | 0.00 | 0.00 | 0.00 | 71 | 1005.8 |
| 20260505035648 | 66 | 172 | 0.0 | 0.0 | 0.00 | 0.00 | 0.00 | 71 | 1006.1 |
| 20260505035144 | 66 | 177 | 0.0 | 0.0 | 0.00 | 0.00 | 0.00 | 70 | 1006.1 |
| 20260505034640 | 67 | 171 | 0.0 | 0.0 | 0.00 | 0.00 | 0.00 | 70 | 1006.1 |
| 20260505034133 | 67 | 178 | 0.0 | 0.0 | 0.00 | 0.00 | 0.00 | 69 | 1006.1 |
| 20260505033628 | 67 | 176 | 0.0 | 0.0 | 0.00 | 0.00 | 0.00 | 68 | 1005.9 |
| 20260505033127 | 68 | 176 | 0.0 | 0.0 | 0.00 | 0.00 | 0.00 | 68 | 1006.0 |
| 20260505032625 | 68 | 177 | 0.0 | 0.0 | 0.00 | 0.00 | 0.00 | 68 | 1006.1 |
| 20260505032121 | 68 | 184 | 0.0 | 0.0 | 0.00 | 0.00 | 0.00 | 67 | 1006.0 |
| 20260505031619 | 68 | 158 | 0.0 | 0.0 | 0.00 | 0.00 | 0.00 | 67 | 1006.1 |
| 20260505031114 | 68 | 170 | 0.0 | 0.0 | 0.00 | 0.00 | 0.00 | 66 | 1006.0 |
| 20260505030611 | 68 | 178 | 0.0 | 0.0 | 0.00 | 0.00 | 0.00 | 66 | 1006.1 |
| 20260505030106 | 69 | 188 | 0.0 | 0.0 | 0.00 | 0.00 | 0.00 | 65 | 1006.2 |
| 20260505025602 | 69 | 189 | 0.0 | 3.0 | 0.00 | 0.00 | 0.00 | 65 | 1006.2 |
| 20260505025057 | 69 | 181 | 0.0 | 0.0 | 0.00 | 0.00 | 0.00 | 65 | 1006.0 |
| 20260505024553 | 69 | 156 | 0.0 | 0.0 | 0.00 | 0.00 | 0.00 | 65 | 1005.9 |
| 20260505024051 | 70 | 169 | 0.0 | 0.0 | 0.00 | 0.00 | 0.00 | 64 | 1005.9 |
| 20260505023548 | 70 | 187 | 0.0 | 2.0 | 0.00 | 0.00 | 0.00 | 63 | 1005.8 |
| 20260505023045 | 70 | 176 | 0.0 | 0.0 | 0.00 | 0.00 | 0.00 | 64 | 1005.7 |
| 20260505022543 | 70 | 150 | 0.0 | 0.0 | 0.00 | 0.00 | 0.00 | 63 | 1005.6 |
| 20260505022039 | 70 | 179 | 0.0 | 1.0 | 0.00 | 0.00 | 0.00 | 64 | 1005.6 |
| 20260505021535 | 70 | 190 | 0.0 | 0.0 | 0.00 | 0.00 | 0.00 | 64 | 1005.6 |
| 20260505021032 | 70 | 179 | 0.0 | 0.0 | 0.00 | 0.00 | 0.00 | 63 | 1005.2 |
| 20260505020527 | 70 | 160 | 0.0 | 0.0 | 0.00 | 0.00 | 0.00 | 63 | 1005.3 |
| 20260505020024 | 70 | 169 | 0.0 | 1.0 | 0.00 | 0.00 | 0.00 | 63 | 1005.2 |
| 20260505015521 | 71 | 170 | 0.0 | 1.0 | 0.00 | 0.00 | 0.00 | 62 | 1005.2 |
| 20260505015018 | 71 | 168 | 0.0 | 0.0 | 0.00 | 0.00 | 0.00 | 62 | 1005.5 |
| 20260505014515 | 71 | 159 | 0.0 | 1.0 | 0.00 | 0.00 | 0.00 | 61 | 1005.2 |
| 20260505014012 | 71 | 183 | 0.0 | 0.0 | 0.00 | 0.00 | 0.00 | 61 | 1004.9 |
| 20260505013509 | 71 | 163 | 0.0 | 1.0 | 0.00 | 0.00 | 0.00 | 61 | 1004.8 |
| 20260505013006 | 71 | 163 | 0.0 | 0.0 | 0.00 | 0.00 | 0.00 | 61 | 1004.8 |
| 20260505012505 | 71 | 165 | 0.0 | 0.0 | 0.00 | 0.00 | 0.00 | 61 | 1004.8 |
| 20260505012001 | 71 | 188 | 0.0 | 0.0 | 0.00 | 0.00 | 0.00 | 60 | 1004.7 |
| 20260505011457 | 71 | 176 | 0.0 | 0.0 | 0.00 | 0.00 | 0.00 | 60 | 1004.6 |
| 20260505010954 | 71 | 161 | 0.0 | 0.0 | 0.00 | 0.00 | 0.00 | 60 | 1004.6 |
| 20260505010449 | 72 | 173 | 0.0 | 0.0 | 0.00 | 0.00 | 0.00 | 59 | 1004.7 |
| 20260505005946 | 72 | 181 | 0.0 | 0.0 | 0.00 | 0.00 | 0.00 | 57 | 1004.4 |
| 20260505005443 | 73 | 1 | 0.0 | 0.0 | 0.00 | 0.00 | 0.00 | 57 | 1004.5 |
| 20260505004941 | 73 | 346 | 0.0 | 0.0 | 0.00 | 0.00 | 0.00 | 56 | 1004.5 |
| 20260505004437 | 73 | 353 | 0.0 | 0.0 | 0.00 | 0.00 | 0.00 | 55 | 1004.6 |
| 20260505003934 | 74 | 343 | 0.0 | 0.0 | 0.00 | 0.00 | 0.00 | 54 | 1004.4 |
| 20260505003431 | 74 | 344 | 0.0 | 0.0 | 0.00 | 0.00 | 0.00 | 54 | 1004.3 |
| 20260505002927 | 74 | 47 | 0.0 | 0.0 | 0.00 | 0.00 | 0.00 | 54 | 1004.5 |
| 20260505002423 | 74 | 232 | 0.0 | 1.0 | 0.00 | 0.00 | 0.00 | 54 | 1004.3 |
| 20260505001922 | 74 | 319 | 1.0 | 3.0 | 0.00 | 0.00 | 0.00 | 53 | 1004.1 |
| 20260505001419 | 75 | 355 | 0.0 | 3.0 | 0.00 | 0.00 | 0.00 | 53 | 1004.2 |
| 20260505000916 | 75 | 2 | 0.0 | 0.0 | 0.00 | 0.00 | 0.00 | 53 | 1004.3 |
| 20260505000414 | 75 | 339 | 0.0 | 0.0 | 0.00 | 0.00 | 0.00 | 53 | 1004.4 |
| 20260504235910 | 76 | 351 | 0.0 | 0.0 | 0.00 | 0.00 | 0.00 | 52 | 1004.3 |
| 20260504235408 | 76 | 350 | 0.0 | 0.0 | 0.00 | 0.00 | 0.00 | 52 | 1004.2 |
| 20260504234904 | 76 | 58 | 0.0 | 0.0 | 0.00 | 0.00 | 0.00 | 50 | 1004.0 |
| 20260504234401 | 76 | 339 | 0.0 | 0.0 | 0.00 | 0.00 | 0.00 | 49 | 1004.1 |
| 20260504233858 | 76 | 352 | 0.0 | 0.0 | 0.00 | 0.00 | 0.00 | 50 | 1004.1 |
| 20260504233354 | 76 | 50 | 0.0 | 2.0 | 0.00 | 0.00 | 0.00 | 49 | 1004.1 |
| 20260504232850 | 77 | 341 | 0.0 | 0.0 | 0.00 | 0.00 | 0.00 | 50 | 1004.0 |
| 20260504232347 | 77 | 133 | 2.0 | 3.0 | 0.00 | 0.00 | 0.00 | 49 | 1004.1 |
| 20260504231843 | 77 | 359 | 3.0 | 6.0 | 0.00 | 0.00 | 0.00 | 49 | 1004.1 |
| 20260504231340 | 77 | 164 | 2.0 | 9.0 | 0.00 | 0.00 | 0.00 | 49 | 1004.2 |
| 20260504230836 | 78 | 72 | 3.0 | 4.0 | 0.00 | 0.00 | 0.00 | 49 | 1004.3 |
| 20260504230335 | 78 | 347 | 1.0 | 2.0 | 0.00 | 0.00 | 0.00 | 49 | 1004.3 |
| 20260504225833 | 78 | 0 | 1.0 | 3.0 | 0.00 | 0.00 | 0.00 | 49 | 1004.2 |
| 20260504225329 | 78 | 93 | 2.0 | 3.0 | 0.00 | 0.00 | 0.00 | 49 | 1004.1 |
| 20260504224827 | 78 | 8 | 2.0 | 3.0 | 0.00 | 0.00 | 0.00 | 49 | 1004.0 |
| 20260504224323 | 78 | 337 | 2.0 | 3.0 | 0.00 | 0.00 | 0.00 | 48 | 1004.1 |
| 20260504223820 | 78 | 35 | 2.0 | 2.0 | 0.00 | 0.00 | 0.00 | 47 | 1004.2 |
| 20260504223315 | 79 | 295 | 3.0 | 4.0 | 0.00 | 0.00 | 0.00 | 47 | 1004.0 |
| 20260504222812 | 79 | 293 | 0.0 | 6.0 | 0.00 | 0.00 | 0.00 | 47 | 1004.1 |
| 20260504222309 | 80 | 336 | 1.0 | 4.0 | 0.00 | 0.00 | 0.00 | 48 | 1004.1 |
| 20260504221808 | 80 | 35 | 2.0 | 2.0 | 0.00 | 0.00 | 0.00 | 48 | 1003.9 |
| 20260504221304 | 80 | 61 | 3.0 | 6.0 | 0.00 | 0.00 | 0.00 | 46 | 1004.3 |
| 20260504220801 | 80 | 306 | 2.0 | 3.0 | 0.00 | 0.00 | 0.00 | 47 | 1004.1 |
| 20260504220258 | 80 | 142 | 1.0 | 6.0 | 0.00 | 0.00 | 0.00 | 47 | 1004.3 |
| 20260504215755 | 79 | 22 | 1.0 | 7.0 | 0.00 | 0.00 | 0.00 | 48 | 1004.3 |
| 20260504215251 | 80 | 41 | 2.0 | 8.0 | 0.00 | 0.00 | 0.00 | 47 | 1004.3 |
| 20260504214747 | 80 | 314 | 1.0 | 4.0 | 0.00 | 0.00 | 0.00 | 48 | 1004.4 |
| 20260504214244 | 81 | 304 | 6.0 | 8.0 | 0.00 | 0.00 | 0.00 | 45 | 1004.4 |
| 20260504213741 | 81 | 202 | 3.0 | 4.0 | 0.00 | 0.00 | 0.00 | 47 | 1004.6 |
| 20260504213237 | 81 | 92 | 3.0 | 4.0 | 0.00 | 0.00 | 0.00 | 47 | 1004.4 |
| 20260504212734 | 81 | 152 | 2.0 | 6.0 | 0.00 | 0.00 | 0.00 | 47 | 1004.5 |
| 20260504212231 | 82 | 345 | 0.0 | 3.0 | 0.00 | 0.00 | 0.00 | 46 | 1004.7 |
| 20260504211729 | 82 | 346 | 1.0 | 4.0 | 0.00 | 0.00 | 0.00 | 46 | 1004.5 |
| 20260504211225 | 82 | 41 | 0.0 | 2.0 | 0.00 | 0.00 | 0.00 | 46 | 1004.6 |
| 20260504210723 | 82 | 332 | 2.0 | 7.0 | 0.00 | 0.00 | 0.00 | 45 | 1004.6 |
| 20260504210220 | 83 | 334 | 1.0 | 4.0 | 0.00 | 0.00 | 0.00 | 46 | 1004.8 |
| 20260504205716 | 82 | 342 | 0.0 | 2.0 | 0.00 | 0.00 | 0.00 | 48 | 1004.8 |
| 20260504205208 | 83 | 83 | 2.0 | 9.0 | 0.00 | 0.00 | 0.00 | 47 | 1004.8 |
| 20260504204706 | 83 | 315 | 0.0 | 7.0 | 0.00 | 0.00 | 0.00 | 46 | 1004.7 |
| 20260504204205 | 83 | 346 | 0.0 | 1.0 | 0.00 | 0.00 | 0.00 | 51 | 1004.8 |
| 20260504203703 | 83 | 49 | 2.0 | 3.0 | 0.00 | 0.00 | 0.00 | 45 | 1005.1 |
| 20260504203200 | 83 | 344 | 0.0 | 2.0 | 0.00 | 0.00 | 0.00 | 47 | 1004.9 |
| 20260504202655 | 82 | 348 | 3.0 | 6.0 | 0.00 | 0.00 | 0.00 | 45 | 1005.2 |
| 20260504202152 | 82 | 52 | 2.0 | 4.0 | 0.00 | 0.00 | 0.00 | 45 | 1005.2 |
| 20260504201649 | 82 | 161 | 3.0 | 7.0 | 0.00 | 0.00 | 0.00 | 45 | 1005.3 |
| 20260504201147 | 81 | 155 | 1.0 | 4.0 | 0.00 | 0.00 | 0.00 | 47 | 1005.3 |
| 20260504200644 | 83 | 163 | 6.0 | 9.0 | 0.00 | 0.00 | 0.00 | 45 | 1005.5 |
| 20260504200140 | 83 | 45 | 2.0 | 2.0 | 0.00 | 0.00 | 0.00 | 47 | 1005.3 |
| 20260504195636 | 83 | 27 | 1.0 | 4.0 | 0.00 | 0.00 | 0.00 | 49 | 1005.6 |
| 20260504195132 | 83 | 266 | 0.0 | 2.0 | 0.00 | 0.00 | 0.00 | 45 | 1005.8 |
| 20260504194629 | 83 | 332 | 0.0 | 1.0 | 0.00 | 0.00 | 0.00 | 48 | 1005.6 |
| 20260504194125 | 83 | 212 | 0.0 | 2.0 | 0.00 | 0.00 | 0.00 | 49 | 1005.7 |
| 20260504193622 | 84 | 339 | 0.0 | 3.0 | 0.00 | 0.00 | 0.00 | 47 | 1005.6 |
| 20260504193120 | 84 | 349 | 0.0 | 0.0 | 0.00 | 0.00 | 0.00 | 47 | 1005.8 |
| 20260504192618 | 83 | 341 | 0.0 | 0.0 | 0.00 | 0.00 | 0.00 | 50 | 1005.7 |
| 20260504192116 | 81 | 330 | 0.0 | 0.0 | 0.00 | 0.00 | 0.00 | 46 | 1005.9 |
| 20260504191614 | 83 | 301 | 2.0 | 3.0 | 0.00 | 0.00 | 0.00 | 44 | 1005.9 |
| 20260504191110 | 82 | 9 | 2.0 | 3.0 | 0.00 | 0.00 | 0.00 | 50 | 1005.8 |
| 20260504190606 | 81 | 329 | 0.0 | 7.0 | 0.00 | 0.00 | 0.00 | 48 | 1005.8 |
| 20260504185559 | 82 | 79 | 1.0 | 4.0 | 0.00 | 0.00 | 0.00 | 49 | 1005.8 |
| 20260504185056 | 81 | 142 | 2.0 | 4.0 | 0.00 | 0.00 | 0.00 | 49 | 1006.0 |
| 20260504184551 | 82 | 116 | 4.0 | 8.0 | 0.00 | 0.00 | 0.00 | 47 | 1005.7 |
| 20260504184047 | 82 | 17 | 1.0 | 2.0 | 0.00 | 0.00 | 0.00 | 46 | 1006.0 |
| 20260504183544 | 81 | 17 | 1.0 | 3.0 | 0.00 | 0.00 | 0.00 | 48 | 1006.2 |
| 20260504183042 | 81 | 237 | 5.0 | 9.0 | 0.00 | 0.00 | 0.00 | 48 | 1005.8 |
| 20260504182539 | 82 | 339 | 1.0 | 3.0 | 0.00 | 0.00 | 0.00 | 48 | 1005.8 |
| 20260504182036 | 81 | 338 | 0.0 | 1.0 | 0.00 | 0.00 | 0.00 | 47 | 1005.9 |
| 20260504181533 | 81 | 108 | 3.0 | 7.0 | 0.00 | 0.00 | 0.00 | 46 | 1006.0 |
| 20260504181031 | 81 | 102 | 0.0 | 8.0 | 0.00 | 0.00 | 0.00 | 47 | 1005.9 |
| 20260504180530 | 81 | 18 | 2.0 | 4.0 | 0.00 | 0.00 | 0.00 | 46 | 1006.0 |
| 20260504180028 | 81 | 100 | 2.0 | 7.0 | 0.00 | 0.00 | 0.00 | 47 | 1005.8 |
| 20260504175525 | 82 | 351 | 4.0 | 9.0 | 0.00 | 0.00 | 0.00 | 46 | 1006.1 |
| 20260504175022 | 82 | 2 | 1.0 | 6.0 | 0.00 | 0.00 | 0.00 | 48 | 1006.1 |
| 20260504174520 | 81 | 1 | 1.0 | 7.0 | 0.00 | 0.00 | 0.00 | 49 | 1006.2 |
| 20260504174017 | 81 | 312 | 0.0 | 2.0 | 0.00 | 0.00 | 0.00 | 50 | 1006.1 |
| 20260504173514 | 81 | 145 | 2.0 | 6.0 | 0.00 | 0.00 | 0.00 | 47 | 1006.1 |
| 20260504173011 | 80 | 178 | 0.0 | 8.0 | 0.00 | 0.00 | 0.00 | 47 | 1006.3 |
| 20260504172507 | 80 | 142 | 1.0 | 4.0 | 0.00 | 0.00 | 0.00 | 47 | 1006.4 |
| 20260504172003 | 80 | 156 | 2.0 | 6.0 | 0.00 | 0.00 | 0.00 | 47 | 1006.3 |
| 20260504171500 | 80 | 120 | 3.0 | 4.0 | 0.00 | 0.00 | 0.00 | 48 | 1006.3 |
| 20260504170957 | 80 | 2 | 2.0 | 9.0 | 0.00 | 0.00 | 0.00 | 50 | 1006.6 |
| 20260504170453 | 80 | 35 | 2.0 | 7.0 | 0.00 | 0.00 | 0.00 | 48 | 1006.5 |
| 20260504160413 | 78 | 338 | 1.0 | 3.0 | 0.00 | 0.00 | 0.00 | 49 | 1007.0 |
| 20260504150837 | 75 | 143 | 5.0 | 6.0 | 0.00 | 0.00 | 0.00 | 49 | 1007.4 |
| 20260504150334 | 74 | 4 | 2.0 | 3.0 | 0.00 | 0.00 | 0.00 | 51 | 1007.4 |
| 20260504141304 | 69 | 140 | 2.0 | 4.0 | 0.00 | 0.00 | 0.00 | 57 | 1007.9 |
| 20260504140800 | 69 | 339 | 0.0 | 1.0 | 0.00 | 0.00 | 0.00 | 59 | 1008.3 |
| 20260504140256 | 68 | 350 | 0.0 | 3.0 | 0.00 | 0.00 | 0.00 | 58 | 1008.0 |
| 20260504130725 | 65 | 321 | 1.0 | 3.0 | 0.00 | 0.00 | 0.00 | 62 | 1008.5 |
| 20260504130221 | 64 | 356 | 0.0 | 0.0 | 0.00 | 0.00 | 0.00 | 62 | 1008.3 |
| 20260504120145 | 61 | 292 | 1.0 | 2.0 | 0.00 | 0.00 | 0.00 | 65 | 1008.6 |